Theta_e
327 330 334 339 339 338 338 337 337 337 341 343 342 342 341 343 342 347 351 349 350 353 351 353 354 353 352 350 351 349 342 339 334 329 335 340 340 345 339 337 336 338 338
324 328 332 335 337 336 337 336 336 336 340 343 340 342 345 345 347 348 350 350 345 351 353 352 353 353 351 351 350 347 342 335 330 326 322 327 328 325 334 333 334 334 339
324 326 329 333 336 334 335 335 336 336 339 345 344 345 344 341 342 346 345 347 348 346 354 354 354 354 353 350 349 346 340 328 330 325 322 315 317 318 324 328 330 333 334
326 327 328 331 334 334 337 336 336 338 341 345 343 342 339 336 336 336 341 345 346 349 355 354 354 353 353 351 350 349 341 330 323 325 319 316 320 317 313 314 320 318 328
328 326 329 332 334 334 337 337 338 340 342 343 345 342 339 337 340 341 343 343 347 348 349 354 356 354 354 351 350 343 333 332 323 319 318 310 308 308 305 302 307 311 320
330 329 331 332 333 334 338 338 341 340 341 341 344 344 341 340 338 338 339 343 343 347 347 353 355 354 355 352 351 343 330 324 322 320 316 308 307 308 307 305 305 307 317
330 330 329 330 331 333 335 339 342 339 341 341 341 344 345 343 337 336 338 341 339 341 347 351 355 355 355 354 350 340 332 323 321 320 318 314 312 311 309 308 307 308 311
331 331 331 331 332 334 336 339 340 341 341 342 341 342 345 347 345 339 339 341 343 342 351 351 352 355 357 356 349 342 335 327 322 319 317 315 315 312 312 312 309 307 309
332 332 333 334 334 335 337 340 341 342 344 344 344 344 344 344 345 345 342 341 341 344 354 351 350 355 357 355 347 342 339 328 321 317 314 317 318 317 317 315 312 309 306
331 331 335 335 338 338 340 342 342 343 346 347 348 347 347 346 346 345 343 339 339 341 348 349 348 354 356 354 348 342 337 328 322 318 315 317 318 319 317 315 314 312 310
335 335 338 337 340 342 342 343 344 344 345 349 350 350 350 350 349 346 344 342 341 343 343 349 349 349 354 353 346 341 332 328 322 321 321 321 318 317 317 316 316 315 313
334 333 336 340 339 339 344 345 347 347 348 350 349 351 353 352 350 349 348 346 346 346 348 350 349 350 352 352 346 342 336 330 323 319 322 321 323 318 317 315 313 313 313
332 334 334 332 338 341 341 345 349 348 351 354 353 352 352 353 352 352 350 348 347 345 344 349 348 348 350 352 348 344 340 331 326 320 323 321 319 315 314 312 312 311 315
330 331 332 334 335 340 340 338 339 339 342 344 348 352 354 354 354 354 351 351 349 346 344 345 349 349 348 351 351 346 341 331 327 322 326 323 319 315 313 313 311 312 311
329 330 330 332 334 336 338 343 344 340 338 336 341 346 352 356 355 354 353 354 352 350 347 345 346 349 349 350 350 346 337 326 324 327 321 319 319 322 318 314 311 310 308
328 330 332 334 334 337 340 341 342 343 348 346 347 350 352 354 355 354 354 353 353 352 350 347 347 347 353 342 338 342 330 322 323 319 323 321 325 324 325 323 320 314 308
326 328 330 332 334 334 336 335 338 342 345 348 351 351 353 353 355 355 354 354 354 354 353 353 350 348 347 334 333 335 327 323 320 321 321 318 321 320 318 322 321 320 319
325 329 331 331 332 335 336 337 340 338 340 343 345 349 351 355 356 356 356 356 357 356 355 355 354 351 350 331 328 331 326 324 321 321 320 318 316 317 315 311 310 309 310
323 330 332 332 332 332 334 337 333 333 334 336 338 343 347 341 346 352 354 357 356 357 355 355 356 354 349 326 324 329 325 322 319 320 320 319 315 319 318 311 310 308 309
325 328 330 329 328 329 332 332 330 329 330 333 337 341 343 347 343 343 344 355 355 354 354 357 357 343 350 320 321 329 327 320 318 319 320 322 317 316 314 312 309 307 308
320 324 324 325 325 327 328 327 328 327 329 334 339 342 344 346 350 347 346 352 352 354 354 356 354 352 347 329 318 322 330 325 320 319 317 318 315 312 310 312 311 310 310
318 320 320 322 325 325 324 323 323 326 330 335 339 341 342 347 354 352 350 351 351 350 348 349 349 350 347 326 317 318 324 324 324 320 320 318 312 309 308 311 310 310 314
319 321 319 320 322 321 321 320 322 326 329 334 337 338 339 342 345 347 349 349 350 347 345 345 345 346 347 333 317 316 319 320 327 326 322 315 309 307 309 311 310 311 314
318 318 318 318 319 320 320 320 322 325 327 332 332 334 336 335 340 341 338 338 339 340 340 341 339 338 341 336 328 329 324 322 328 323 322 317 315 313 316 313 313 315 316
315 316 316 317 318 317 316 318 320 322 326 330 329 331 334 336 334 322 318 328 316 315 329 326 329 332 336 325 312 321 327 328 325 321 320 317 316 314 312 310 313 313 315
314 313 313 315 315 314 314 315 317 320 324 327 326 328 332 331 335 332 319 308 305 303 300 301 310 320 307 302 299 303 307 310 311 320 320 317 315 312 312 311 308 307 316
Wind_Speed
11 11 13 12 9 5 7 7 6 5 1 1 0 1 2 3 3 3 4 3 3 3 2 2 2 3 3 2 3 2 4 4 4 2 2 1 4 3 2 2 3 3 3
8 9 10 11 13 12 10 7 8 7 4 1 1 1 1 3 3 2 3 2 4 3 2 1 1 1 3 6 4 4 1 2 4 2 2 1 3 2 2 2 3 4 3
14 13 12 14 12 11 11 10 9 8 6 5 1 2 2 2 2 2 3 4 4 3 3 2 3 3 2 2 1 2 2 1 2 5 3 1 3 1 1 3 4 5 4
11 13 16 12 13 13 10 8 8 8 7 6 3 3 2 1 2 1 2 5 4 3 3 2 3 3 1 2 2 2 2 2 2 3 4 4 2 2 2 2 1 3 4
17 15 16 18 15 12 11 10 8 7 7 7 6 4 3 2 2 3 5 3 3 2 1 3 4 3 1 2 2 2 3 1 1 0 1 3 3 3 3 2 3 1 4
17 18 16 11 12 9 9 8 8 8 7 7 7 8 6 4 2 3 3 2 1 2 4 4 4 3 3 2 2 2 3 2 3 1 1 1 1 1 1 0 2 1 3
15 17 18 15 12 11 11 8 7 8 8 8 6 7 7 5 6 6 4 3 2 2 5 5 4 3 3 3 3 3 3 1 1 1 1 0 1 2 2 2 1 0 2
14 17 16 17 16 14 12 12 10 9 8 9 8 7 7 4 4 5 3 2 2 3 5 4 4 5 5 4 4 2 2 2 3 2 3 1 1 1 2 3 3 1 2
7 15 17 17 15 15 14 14 12 11 8 11 8 8 7 7 6 7 4 3 4 3 3 3 4 5 5 5 5 3 3 2 2 1 2 0 2 1 1 1 2 4 2
8 9 11 12 12 15 13 12 11 13 14 11 9 8 9 8 7 6 7 6 5 4 4 3 3 4 5 5 5 4 3 3 2 1 2 1 2 3 2 1 1 2 3
9 5 4 7 10 9 11 12 11 10 9 10 9 9 9 9 7 7 7 6 5 6 6 5 5 6 6 6 5 5 5 4 2 2 2 1 2 2 2 2 1 1 2
11 9 9 6 5 11 13 14 12 9 7 5 4 7 5 5 6 8 7 6 7 5 5 6 6 6 6 6 6 6 6 6 5 4 3 2 2 3 3 3 3 2 1
15 13 12 9 6 5 2 9 7 7 6 7 7 6 6 6 8 9 7 6 7 7 6 5 6 6 6 6 6 6 6 6 6 4 4 4 3 1 2 3 3 2 3
12 11 11 12 8 3 1 1 9 8 7 6 5 6 8 10 10 8 6 7 7 7 7 7 6 6 6 6 6 6 6 5 5 4 4 4 3 3 2 4 4 4 5
11 9 8 8 8 8 5 4 4 4 1 2 1 3 5 8 8 8 8 8 7 8 7 6 6 6 6 5 6 6 6 6 6 5 4 4 5 5 3 3 3 4 3
13 4 5 7 7 9 8 3 2 1 5 2 3 5 4 7 10 9 8 6 7 7 6 7 7 7 6 9 12 10 8 7 8 6 5 4 8 7 8 9 7 5 3
5 3 5 3 3 2 6 7 5 3 3 5 4 5 7 8 9 8 8 9 10 8 9 8 7 8 7 9 13 13 8 9 8 8 7 5 4 7 6 10 12 11 8
1 1 1 7 6 5 5 5 8 8 6 5 6 5 8 8 5 7 10 10 9 10 10 9 9 7 6 9 12 15 9 8 8 10 9 8 7 6 7 6 6 6 6
2 3 3 6 5 6 6 5 7 7 9 9 7 7 6 7 7 6 10 9 7 7 8 7 10 8 4 12 15 13 9 8 9 9 8 9 8 10 11 7 6 6 4
1 3 4 3 5 7 7 6 7 8 9 9 8 7 8 6 1 11 17 14 5 7 4 8 8 8 7 13 17 12 8 9 7 7 7 12 10 13 12 8 7 6 3
2 2 3 3 4 5 6 6 6 7 8 9 13 13 14 12 3 3 30 5 4 4 5 7 6 6 7 9 16 15 10 10 9 8 7 7 14 15 14 10 7 6 7
2 1 1 2 2 5 4 5 6 6 8 8 8 8 9 6 6 12 7 3 2 3 3 4 4 3 4 8 15 16 11 15 11 11 8 8 17 17 15 11 8 11 7
2 1 1 1 3 5 4 4 5 5 6 6 7 7 8 7 5 3 3 7 7 2 4 4 2 2 4 4 2 8 10 16 9 8 10 12 18 16 12 11 11 10 4
1 2 2 3 3 5 5 5 6 6 5 5 6 7 7 7 6 5 6 3 3 2 1 2 3 2 3 4 4 6 4 6 7 10 9 8 9 8 7 6 9 6 5
2 1 2 2 4 5 6 6 7 7 7 5 5 5 5 6 2 5 4 3 3 3 3 3 3 3 3 2 1 5 7 8 7 8 5 5 4 6 6 4 7 4 4
1 1 1 2 2 5 6 6 6 6 6 5 5 5 5 4 3 2 4 12 6 8 12 9 7 3 3 4 5 6 10 12 16 5 5 6 8 9 8 8 6 4 7
Wind_Direction
192 177 175 172 169 165 160 180 181 211 155 109 36 355 295 307 305 270 234 239 263 250 79 43 9 56 66 33 19 358 33 8 8 65 35 305 215 174 177 171 187 171 191
158 175 169 173 181 179 185 181 193 180 194 131 172 124 297 289 285 295 270 276 261 211 133 154 93 91 46 27 19 3 15 353 17 107 65 350 341 16 164 165 194 199 206
179 179 173 185 185 178 190 190 188 181 191 175 117 4 349 328 359 10 311 275 235 206 160 129 99 69 73 50 27 14 52 5 337 46 139 65 243 351 336 208 197 212 208
184 191 177 182 189 196 186 186 192 179 188 160 148 177 198 242 249 262 276 293 315 312 132 154 123 123 128 91 30 17 47 95 351 345 43 54 151 177 314 355 276 357 272
179 186 192 190 193 175 182 185 184 197 183 166 172 184 215 232 293 291 306 311 353 307 266 179 155 147 140 119 132 52 49 60 105 62 332 16 35 55 117 274 308 334 8
189 184 192 186 184 178 169 181 180 198 201 185 181 182 202 246 280 290 297 320 334 321 312 200 167 170 165 179 145 98 74 67 94 80 56 130 185 261 106 166 291 269 2
186 182 180 180 178 176 169 167 186 205 194 201 197 195 202 208 228 255 272 320 324 294 274 210 160 177 175 195 147 135 117 154 108 60 62 336 223 172 139 116 260 101 327
192 184 184 186 179 179 173 174 180 210 200 195 206 201 205 204 211 227 231 251 265 267 266 191 164 181 169 175 156 131 130 117 62 70 88 295 282 201 161 177 146 7 12
182 187 180 184 178 181 184 179 182 200 211 213 198 197 202 206 213 221 221 217 258 276 254 201 188 161 175 175 171 159 161 123 78 70 106 154 331 10 64 91 142 156 164
154 180 188 177 181 184 178 181 187 201 200 209 210 207 207 206 208 212 229 222 250 275 286 216 189 169 183 181 177 169 157 155 115 109 91 349 3 355 40 63 70 117 138
36 71 91 156 179 170 180 187 188 200 197 200 208 210 213 210 201 210 220 232 228 235 252 225 182 183 192 185 177 179 168 160 158 116 121 64 48 6 13 26 18 39 121
39 20 18 42 123 171 183 191 188 186 186 195 226 254 246 211 209 221 221 201 220 230 219 207 203 190 196 186 182 184 177 175 178 186 147 133 85 24 4 3 8 293 100
43 31 23 359 25 52 25 159 143 150 161 170 182 208 222 213 217 231 218 208 208 223 226 212 209 213 198 193 198 189 186 178 162 187 168 163 132 36 358 21 55 47 71
41 38 25 10 343 351 90 127 145 156 157 152 162 197 219 223 226 217 214 222 217 219 219 212 216 221 217 203 198 185 186 160 158 166 149 167 154 156 116 75 77 71 78
39 22 31 17 351 338 1 344 37 13 281 131 216 202 229 230 219 215 201 221 223 231 224 218 217 216 210 216 192 175 166 154 140 126 128 165 146 141 149 124 100 96 77
157 143 55 37 11 352 356 40 74 206 303 313 253 270 269 232 212 208 212 192 221 227 224 222 222 215 210 203 184 159 159 155 144 140 133 148 121 107 101 90 97 120 126
24 27 80 28 344 358 322 348 13 325 353 338 352 340 318 239 222 204 183 205 212 216 226 233 226 232 209 202 184 165 154 154 149 145 140 136 122 111 96 82 78 69 74
226 129 325 60 334 355 349 349 12 15 23 18 358 11 342 301 232 199 209 217 208 206 222 227 227 225 224 189 182 173 147 140 146 153 161 151 147 145 128 108 85 70 61
347 31 354 53 326 339 348 9 33 19 359 355 341 355 308 270 317 325 261 221 200 205 213 208 222 214 210 170 178 159 132 144 154 159 160 160 154 158 147 124 117 97 75
127 83 48 22 320 343 354 21 22 6 350 335 315 304 279 234 221 329 303 268 203 206 201 234 226 224 183 174 173 158 146 153 152 154 158 172 162 160 155 146 148 132 160
172 120 119 89 18 350 3 23 10 5 320 319 326 329 324 325 358 222 253 263 240 215 210 231 238 213 168 177 172 166 162 159 159 167 177 185 171 169 166 162 167 166 155
173 185 118 91 26 21 30 26 15 331 313 326 319 315 304 281 258 226 240 210 262 252 260 248 260 217 158 174 177 181 167 159 160 176 177 187 178 176 174 168 172 146 133
187 254 256 30 10 6 23 23 329 319 312 329 327 322 308 320 342 353 334 15 360 42 280 253 282 51 123 128 186 199 169 160 152 164 175 170 182 173 177 176 170 152 134
111 342 1 338 326 336 349 340 330 331 322 332 335 328 329 327 355 25 40 36 328 263 256 46 60 51 80 102 127 172 163 142 135 145 157 163 165 147 142 132 167 173 164
153 142 201 269 292 337 342 338 344 337 336 334 342 336 342 340 44 53 26 63 42 325 5 16 2 31 76 82 305 195 175 175 161 122 123 140 150 144 149 142 160 155 148
204 135 25 213 299 335 331 332 343 332 327 335 339 333 340 342 339 161 100 42 51 52 57 41 39 32 44 354 338 288 192 157 144 117 166 170 170 171 168 172 165 158 170